This is the latest recevied weather packets stored in our database for station/object W6SNO-1. If no packets are shown the sender has not sent any weather packets the latest 10 day(s).
| Time | Temp. | Humidity | Pressure | Rain* | Wind** | Luminosity | Snow |
|---|---|---|---|---|---|---|---|
| 1787604673 | 30° C | 41% | 1014.4 hPa | 0 mm | - | 737 W/m² | - |
| 1787604368 | 29.44° C | 41% | 1014.5 hPa | 0 mm | - | 742 W/m² | - |
| 1787604063 | 29.44° C | 41% | 1014.5 hPa | 0 mm | - | 745 W/m² | - |
| 1787603762 | 29.44° C | 42% | 1014.5 hPa | 0 mm | - | 748 W/m² | - |
| 1787603458 | 29.44° C | 42% | 1014.8 hPa | 0 mm | - | 750 W/m² | - |
| 1787603153 | 28.89° C | 43% | 1014.8 hPa | 0 mm | - | 752 W/m² | - |
| 1787602850 | 28.89° C | 44% | 1014.8 hPa | 0 mm | - | 753 W/m² | - |
| 1787602550 | 28.89° C | 44% | 1015 hPa | 0 mm | - | 755 W/m² | - |
| 1787602245 | 28.89° C | 44% | 1014.9 hPa | 0 mm | - | 757 W/m² | - |
| 1787601943 | 28.33° C | 45% | 1014.8 hPa | 0 mm | - | 755 W/m² | - |
| 1787601639 | 28.33° C | 45% | 1015 hPa | 0 mm | - | 755 W/m² | - |
| 1787601334 | 27.78° C | 46% | 1014.9 hPa | 0 mm | - | 754 W/m² | - |
| 1787601033 | 27.22° C | 47% | 1015 hPa | 0 mm | - | 753 W/m² | - |
| 1787600728 | 27.22° C | 48% | 1015.1 hPa | 0 mm | - | 751 W/m² | - |
| 1787600423 | 27.22° C | 48% | 1015.1 hPa | 0 mm | - | 748 W/m² | - |
| 1787600119 | 26.67° C | 50% | 1015.1 hPa | 0 mm | - | 748 W/m² | - |
| 1787599816 | 26.67° C | 50% | 1015.2 hPa | 0 mm | - | 744 W/m² | - |
| 1787599512 | 26.67° C | 51% | 1015.2 hPa | 0 mm | - | 741 W/m² | - |
| 1787599208 | 26.11° C | 52% | 1015.3 hPa | 0 mm | - | 732 W/m² | - |
| 1787598903 | 26.11° C | 52% | 1015.2 hPa | 0 mm | - | 731 W/m² | - |
| 1787598299 | 25° C | 55% | 1015.2 hPa | 0 mm | - | 714 W/m² | - |
| 1787597995 | 25° C | 55% | 1015.4 hPa | 0 mm | - | 714 W/m² | - |
| 1787597690 | 25° C | 56% | 1015.4 hPa | 0 mm | - | 711 W/m² | - |
| 1787597389 | 25° C | 55% | 1015.5 hPa | 0 mm | - | 706 W/m² | - |
| 1787597084 | 25° C | 56% | 1015.4 hPa | 0 mm | - | 700 W/m² | - |
* Rain latest hour (hover to see other rain measurements)
** Current wind speed in m/s (hover to see current wind gust speed)